カタログに戻る

STARLINK-38106

運用中通信VLEO
NORAD 100014·PAYLOAD·🇺🇸 United States

打ち上げ Jul 14, 2026 から Vandenberg Space Force Base

Loading…

次のパス (今後24時間)

TLE

最新Source: Space-Track

元期: Sep 14, 2026, 23:13 UTC

1 A0014U 26160P   26257.96750094 -.00968291  00000-0 -77273-2 0  9997
2 A0014  70.0020 210.4536 0004448 276.2035  83.8656 15.73584026 11124

AllMySatでSTARLINK-38106をリアルタイム追跡

Download on the App Store